[Iaude] MPEC G137: 2024 GP2 [a=1.59,e=0.49,i=13.2,H=26.1]

mpec at cfa.harvard.edu mpec at cfa.harvard.edu
Wed Apr 10 12:18:02 EDT 2024


M.P.E.C. 2024-G137                               Issued 2024 April 10, 16:16 UT

     The Minor Planet Electronic Circulars contain information on unusual
         minor planets, routine data on comets and natural satellites,
         and occasional editorial announcements.  They are published
    on behalf of Division F of the International Astronomical Union by the
          Minor Planet Center, Smithsonian Astrophysical Observatory,
                          Cambridge, MA 02138, U.S.A.
			  
             Prepared using the Tamkin Foundation Computer Network

                              MPC at CFA.HARVARD.EDU
            URL https://www.minorplanetcenter.net/    ISSN 1523-6714

                                    2024 GP2                                    


Observations:
     K24G02P* C2024 04 09.56826514 30 48.882+29 31 22.99         21.11wXEG137F52
     K24G02P  C2024 04 09.58013514 30 46.536+29 30 27.90         21.88wXEG137F52
     K24G02P  C2024 04 09.59203514 30 44.183+29 29 31.83         21.13wXEG137F52
     K24G02P  C2024 04 09.60386214 30 41.939+29 28 37.01         21.69wXEG137F52
     K24G02P KC2024 04 10.28635714 29 26.150+28 42 13.00         20.98GVEG137I52
     K24G02P KC2024 04 10.29025714 29 25.450+28 41 58.70         21.82GVEG137I52
     K24G02P KC2024 04 10.29415514 29 24.850+28 41 43.60               VEG137I52
     K24G02P KC2024 04 10.29804014 29 24.190+28 41 29.70               VEG137I52
     K24G02P 3C2024 04 10.59630214 28 41.062+28 23 57.95         21.70GVEG137T14
     K24G02P 3C2024 04 10.59728414 28 40.914+28 23 54.32         21.89GVEG137T14
     K24G02P 3C2024 04 10.59826514 28 40.760+28 23 50.72         21.74GVEG137T14
     K24G02P 3C2024 04 10.59924914 28 40.615+28 23 47.04         22.28GVEG137T14

Observer details:
F52 Pan-STARRS 2, Haleakala.  Observers J. Herman, T. Lowe, P. Minguez, A.
    Schultz, I. Smith.  Measurers K. Chambers, T. de Boer, J. Fairlamb, H.
    Gao, M. Huber, C.-C. Lin, E. Magnier, Y. Ramanjooloo, R. Wainscoat, R.
    Weryk.  1.8-m Ritchey-Chretien + CCD.
I52 Steward Observatory, Mt. Lemmon Station.  Observer G. J. Leonard.
    Measurers T. Beuden, V. F. Carvajal, D. Fay, J. B. Fazekas, D. C. Fuls, A.
    R. Gibbs, A. D. Grauer, H. Groeller, J. K. Hogan, R. A. Kowalski, S. M.
    Larson, G. J. Leonard, D. Rankin, R. L. Seaman, F. C. Shelly, K. W.
    Wierzchos.  1.0-m prime focus + CCD.
T14 Canada-France-Hawaii Telescope, Maunakea.  Observers R. Wainscoat, A.
    Acohido, T. Burdullis.  Measurers R. Weryk, R. Wainscoat.  3.6-m f/4.1
    reflector + CCD.

Orbital elements:
2024 GP2                                                 Earth MOID = 0.0089 AU
Epoch 2024 Mar. 31.0 TT = JDT 2460400.5                 MPC                     
M  21.02321              (2000.0)            P               Q                  
n   0.49321143     Peri.  297.22528     -0.61468379     -0.78756384             
a   1.5865264      Node   191.03059     +0.78004993     -0.59874188             
e   0.4911006      Incl.   13.19336     +0.11698689     -0.14577845             
P   2.00           H   26.19          G   0.15           U   8                  
Residuals in seconds of arc
240409 F52  0.2-  0.3-    240410 I52  0.1+  0.8+    240410 T14  0.0   0.0
240409 F52  0.1+  0.1+    240410 I52  0.5-  0.4+    240410 T14  0.0   0.0
240409 F52  0.2-  0.3-    240410 I52  0.3+  0.8-    240410 T14  0.0   0.0
240409 F52  0.3+  0.5+    240410 I52  0.2+  0.8-    240410 T14  0.0   0.0

Ephemeris:
2024 GP2                 a,e,i = 1.59, 0.49, 13                  q = 0.8074
Date    TT    R. A. (2000) Decl.     Delta      r    Elong.  Phase     V
2024 03 11    02 04 10.7 -17 36 57   0.1876  0.8614    41.3   130.4    28.0
...
2024 03 26    02 04 30.8 -13 19 40   0.06208 0.9444    30.2   147.9    28.1
...
2024 04 03    20 06 57.2 +70 54 21   0.0096550.9980    78.7   100.7    19.8
...
2024 04 09    14 32 21.4 +30 16 41   0.05264 1.0410   137.5    40.6    21.5
2024 04 10    14 29 56.9 +29 00 54   0.06064 1.0483   138.9    38.9    21.8
2024 04 11    14 28 05.8 +28 01 33   0.06867 1.0557   140.0    37.6    22.0
...
2024 04 17    14 22 01.3 +24 38 33   0.1176  1.1006   143.5    32.9    23.1
...
2024 04 25    14 18 22.6 +22 13 42   0.1850  1.1616   144.6    30.1    24.2
...
2024 05 10    14 16 08.6 +18 36 09   0.3210  1.2770   141.6    29.4    25.5

A. U. Tomatic                (C) Copyright 2024 MPC           M.P.E.C. 2024-G137





More information about the Iaude mailing list